When you browse on this site, cookies collect data to enhance your experience and personalize the content and advertising you see.
Visit our Privacy Policy to learn more. By continuing to use the site, you agree to this use of cookies and data.
  • In Austria
  • List of Countries
  • For 7 days
  • Water Temperature
  • Satellite Maps
  • Weather Map
  • News
  • Weather Widgets
  • user-avatar
    Login

    Hourly Weather Luanda

    Today, 25 June, Tuesday

    Time Temperature Precipitation Wind Pressure Humidity
    00:00 +20°C° 0 mm 3 mps 755 mmHg 95%
    01:00 +19°C° 0 mm 3 mps 755 mmHg 96%
    02:00 +19°C° 0 mm 3 mps 755 mmHg 96%
    03:00 +19°C° 0 mm 3 mps 755 mmHg 97%
    04:00 +19°C° 0 mm 3 mps 755 mmHg 97%
    05:00 +20°C° 0 mm 3 mps 755 mmHg 92%
    06:00 +20°C° 0 mm 3 mps 756 mmHg 88%
    07:00 +21°C° 0 mm 3 mps 756 mmHg 83%
    08:00 +22°C° 0 mm 3 mps 756 mmHg 77%
    09:00 +24°C° 0 mm 3 mps 756 mmHg 71%
    10:00 +25°C° 0 mm 2 mps 756 mmHg 64%
    11:00 +27°C° 0 mm 3 mps 756 mmHg 57%
    12:00 +29°C° 0 mm 3 mps 755 mmHg 49%
    13:00 +32°C° 0 mm 4 mps 754 mmHg 41%
    14:00 +30°C° 0 mm 5 mps 754 mmHg 46%
    15:00 +29°C° 0 mm 5 mps 753 mmHg 52%
    16:00 +28°C° 0 mm 6 mps 753 mmHg 57%
    17:00 +26°C° 0 mm 6 mps 753 mmHg 66%
    18:00 +23°C° 0 mm 6 mps 754 mmHg 74%
    19:00 +21°C° 0 mm 5 mps 754 mmHg 83%
    20:00 +21°C° 0 mm 5 mps 755 mmHg 86%
    21:00 +20°C° 0 mm 5 mps 755 mmHg 89%
    22:00 +20°C° 0 mm 5 mps 755 mmHg 93%
    23:00 +20°C° 0 mm 4 mps 756 mmHg 91%

    Tomorrow, 26 June, Wednesday

    Time Temperature Precipitation Wind Pressure Humidity
    00:00 +20°C° 0 mm 4 mps 756 mmHg 90%
    01:00 +20°C° 0 mm 3 mps 756 mmHg 88%
    02:00 +21°C° 0 mm 3 mps 756 mmHg 85%
    03:00 +21°C° 0 mm 3 mps 756 mmHg 82%
    04:00 +21°C° 0 mm 3 mps 756 mmHg 79%
    05:00 +21°C° 0 mm 3 mps 756 mmHg 78%
    06:00 +21°C° 0 mm 2 mps 756 mmHg 76%
    07:00 +21°C° 0 mm 2 mps 757 mmHg 75%
    08:00 +24°C° 0 mm 2 mps 757 mmHg 69%
    09:00 +25°C° 0 mm 2 mps 757 mmHg 63%
    10:00 +26°C° 0 mm 1 mps 757 mmHg 58%
    11:00 +27°C° 0 mm 2 mps 757 mmHg 52%
    12:00 +29°C° 0 mm 3 mps 756 mmHg 47%
    13:00 +30°C° 0 mm 4 mps 756 mmHg 41%
    14:00 +29°C° 0 mm 5 mps 755 mmHg 46%
    15:00 +28°C° 0 mm 6 mps 755 mmHg 51%
    16:00 +27°C° 0 mm 6 mps 754 mmHg 56%
    17:00 +24°C° 0 mm 6 mps 755 mmHg 64%
    18:00 +23°C° 0 mm 5 mps 755 mmHg 72%
    19:00 +21°C° 0 mm 5 mps 756 mmHg 81%
    20:00 +20°C° 0 mm 4 mps 756 mmHg 84%
    21:00 +20°C° 0 mm 4 mps 756 mmHg 88%
    22:00 +19°C° 0 mm 4 mps 757 mmHg 92%
    23:00 +19°C° 0 mm 4 mps 757 mmHg 93%

    Day after tomorrow, 27 June, Thursday

    Time Temperature Precipitation Wind Pressure Humidity
    00:00 +18°C° 0 mm 4 mps 757 mmHg 94%
    01:00 +18°C° 0 mm 3 mps 757 mmHg 95%
    02:00 +18°C° 0 mm 3 mps 756 mmHg 93%
    03:00 +19°C° 0 mm 3 mps 756 mmHg 90%
    04:00 +19°C° 0 mm 2 mps 756 mmHg 88%
    05:00 +20°C° 0 mm 3 mps 756 mmHg 86%
    06:00 +20°C° 0 mm 3 mps 757 mmHg 84%
    07:00 +21°C° 0 mm 3 mps 757 mmHg 82%
    08:00 +22°C° 0 mm 3 mps 757 mmHg 75%
    09:00 +24°C° 0 mm 3 mps 757 mmHg 68%
    10:00 +25°C° 0 mm 3 mps 757 mmHg 61%
    11:00 +27°C° 0 mm 3 mps 757 mmHg 55%
    12:00 +29°C° 0 mm 4 mps 756 mmHg 48%
    13:00 +30°C° 0 mm 4 mps 756 mmHg 42%
    14:00 +29°C° 0 mm 5 mps 755 mmHg 46%
    15:00 +29°C° 0 mm 6 mps 755 mmHg 49%
    16:00 +28°C° 0 mm 7 mps 754 mmHg 53%
    17:00 +26°C° 0 mm 6 mps 754 mmHg 61%
    18:00 +23°C° 0 mm 6 mps 755 mmHg 69%
    19:00 +21°C° 0 mm 6 mps 755 mmHg 77%
    20:00 +21°C° 0 mm 5 mps 755 mmHg 81%
    21:00 +20°C° 0 mm 5 mps 756 mmHg 85%
    22:00 +20°C° 0 mm 5 mps 756 mmHg 88%
    23:00 +20°C° 0 mm 4 mps 756 mmHg 88%

    28 June, Friday

    Time Temperature Precipitation Wind Pressure Humidity
    00:00 +19°C° 0 mm 4 mps 756 mmHg 89%
    01:00 +19°C° 0 mm 4 mps 756 mmHg 89%
    02:00 +20°C° 0 mm 3 mps 756 mmHg 87%
    03:00 +20°C° 0 mm 3 mps 756 mmHg 84%
    04:00 +20°C° 0 mm 3 mps 756 mmHg 82%
    05:00 +20°C° 0 mm 3 mps 756 mmHg 83%
    06:00 +20°C° 0 mm 3 mps 756 mmHg 83%
    07:00 +20°C° 0 mm 3 mps 757 mmHg 84%
    08:00 +21°C° 0 mm 3 mps 757 mmHg 75%
    09:00 +24°C° 0 mm 2 mps 757 mmHg 67%
    10:00 +26°C° 0 mm 2 mps 757 mmHg 59%
    11:00 +28°C° 0 mm 3 mps 757 mmHg 53%
    12:00 +29°C° 0 mm 3 mps 756 mmHg 47%
    13:00 +32°C° 0 mm 4 mps 755 mmHg 41%
    14:00 +30°C° 0 mm 5 mps 755 mmHg 47%
    15:00 +28°C° 0 mm 6 mps 755 mmHg 53%
    16:00 +27°C° 0 mm 7 mps 754 mmHg 59%
    17:00 +24°C° 0 mm 6 mps 755 mmHg 66%
    18:00 +23°C° 0 mm 6 mps 755 mmHg 72%
    19:00 +21°C° 0 mm 5 mps 755 mmHg 79%
    20:00 +21°C° 0 mm 5 mps 756 mmHg 82%
    21:00 +20°C° 0 mm 4 mps 756 mmHg 86%
    22:00 +20°C° 0 mm 4 mps 757 mmHg 89%
    23:00 +19°C° 0 mm 3 mps 757 mmHg 91%

    29 June, Saturday

    Time Temperature Precipitation Wind Pressure Humidity
    00:00 +19°C° 0 mm 3 mps 757 mmHg 92%
    01:00 +19°C° 0 mm 3 mps 757 mmHg 93%
    02:00 +18°C° 0 mm 3 mps 756 mmHg 93%
    03:00 +18°C° 0 mm 3 mps 756 mmHg 94%
    04:00 +18°C° 0 mm 3 mps 756 mmHg 94%
    05:00 +19°C° 0 mm 2 mps 756 mmHg 91%
    06:00 +19°C° 0 mm 2 mps 757 mmHg 88%
    07:00 +20°C° 0 mm 2 mps 757 mmHg 86%
    08:00 +21°C° 0 mm 2 mps 757 mmHg 79%
    09:00 +22°C° 0 mm 3 mps 757 mmHg 72%
    10:00 +25°C° 0 mm 3 mps 757 mmHg 66%
    11:00 +27°C° 0 mm 3 mps 757 mmHg 58%
    12:00 +29°C° 0 mm 3 mps 756 mmHg 50%
    13:00 +31°C° 0 mm 3 mps 755 mmHg 43%
    14:00 +30°C° 0 mm 4 mps 755 mmHg 48%
    15:00 +29°C° 0 mm 5 mps 754 mmHg 53%
    16:00 +27°C° 0 mm 6 mps 753 mmHg 59%
    17:00 +26°C° 0 mm 6 mps 754 mmHg 66%
    18:00 +23°C° 0 mm 5 mps 754 mmHg 74%
    19:00 +22°C° 0 mm 5 mps 755 mmHg 82%
    20:00 +21°C° 0 mm 5 mps 755 mmHg 85%
    21:00 +21°C° 0 mm 5 mps 756 mmHg 89%
    22:00 +20°C° 0 mm 4 mps 757 mmHg 92%
    23:00 +20°C° 0 mm 4 mps 757 mmHg 93%

    30 June, Sunday

    Time Temperature Precipitation Wind Pressure Humidity
    00:00 +20°C° 0 mm 3 mps 757 mmHg 94%
    01:00 +19°C° 0 mm 3 mps 756 mmHg 94%
    02:00 +20°C° 0 mm 3 mps 756 mmHg 90%
    03:00 +21°C° 0 mm 3 mps 756 mmHg 85%
    04:00 +22°C° 0 mm 3 mps 756 mmHg 81%
    05:00 +22°C° 0 mm 3 mps 757 mmHg 80%
    06:00 +22°C° 0 mm 3 mps 757 mmHg 79%
    07:00 +22°C° 0 mm 3 mps 757 mmHg 78%
    08:00 +24°C° 0 mm 3 mps 757 mmHg 73%
    09:00 +25°C° 0 mm 2 mps 758 mmHg 69%
    10:00 +26°C° 0 mm 2 mps 758 mmHg 64%
    11:00 +28°C° 0 mm 3 mps 757 mmHg 57%
    12:00 +30°C° 0 mm 4 mps 756 mmHg 50%
    13:00 +33°C° 0 mm 4 mps 755 mmHg 43%
    14:00 +32°C° 0 mm 5 mps 755 mmHg 47%
    15:00 +30°C° 0 mm 6 mps 754 mmHg 52%
    16:00 +29°C° 0 mm 7 mps 754 mmHg 56%
    17:00 +27°C° 0 mm 7 mps 754 mmHg 64%
    18:00 +24°C° 0 mm 6 mps 754 mmHg 73%
    19:00 +22°C° 0 mm 6 mps 755 mmHg 81%
    20:00 +21°C° 0 mm 5 mps 755 mmHg 85%
    21:00 +21°C° 0 mm 5 mps 755 mmHg 89%
    22:00 +20°C° 0 mm 4 mps 756 mmHg 93%
    23:00 +20°C° 0 mm 3 mps 755 mmHg 94%
    Show more